Location: Wildcat Hills Observatory
(41.6350°N, 103.6812°W)
Time: 03:40:25
(UTC-06:00)

Cosmos 1346 Rocket - Pass Details

Date: 23 June 2018
Orbit: 522 x 559 km, 81.2° (Epoch: 16 July)

Event Time Altitude Azimuth Distance (km) Brightness Sun altitude
Rises 21:44:49 0° 347° (NNW) 2,716 7.5 -11.2°
Reaches altitude 10° 21:46:59 10° 345° (NNW) 1,824 6.5 -11.5°
Maximum altitude 21:50:59 69° 262° (W) 594 3.1 -12.0°
Enters shadow 21:54:49 11° 180° (S) 1,763 5.0 -12.5°
